EW6157 Weather Reports


Display with metric or nautical units.
time (UTC)temp
F
wind
direction
speed
MPH
gust
MPH
rain 1hr
in
rain 24hr
in
rain mn
in
humidity
%
barometer
mb
20260506123006 42 158 3.0 5.0 0.00 0.00 0.00 75 1014.1
20260506121503 42 123 4.0 8.0 0.00 0.00 0.00 76 1013.9
20260506120002 41 124 2.0 8.0 0.00 0.00 0.00 78 1013.7
20260506114558 41 122 4.0 9.0 0.00 0.00 0.00 82 1013.3
20260506113058 41 129 4.0 10.0 0.00 0.00 0.00 84 1013.2
20260506111555 41 136 4.0 10.0 0.00 0.00 0.00 84 1012.6
20260506110054 41 120 5.0 11.0 0.00 0.00 0.00 86 1012.9
20260506104550 41 176 4.0 10.0 0.00 0.00 0.00 86 1012.8
20260506103053 42 120 6.0 11.0 0.00 0.00 0.00 85 1012.7
20260506101544 43 130 4.0 8.0 0.00 0.00 0.00 83 1012.5
20260506100042 43 148 4.0 9.0 0.00 0.00 0.00 82 1012.2
20260506094539 44 137 5.0 12.0 0.00 0.00 0.00 81 1011.7
20260506093036 44 159 5.0 11.0 0.00 0.00 0.00 79 1011.3
20260506091535 44 136 6.0 10.0 0.00 0.00 0.00 78 1011.0
20260506090044 44 134 5.0 10.0 0.00 0.00 0.00 78 1010.8
20260506084534 44 101 3.0 12.0 0.00 0.00 0.00 78 1011.0
20260506083032 44 105 5.0 9.0 0.00 0.00 0.00 78 1010.9
20260506081531 43 118 4.0 11.0 0.00 0.00 0.00 78 1010.6
20260506073023 43 141 4.0 8.0 0.00 0.00 0.00 79 1009.6
20260506071522 43 136 4.0 9.0 0.00 0.00 0.00 79 1010.0
20260506061515 44 141 2.0 9.0 0.00 0.00 0.00 76 1009.7
20260506050108 46 164 4.0 9.0 0.00 0.00 0.00 70 1008.0
20260506044552 47 133 4.0 13.0 0.00 0.00 0.00 67 1008.0
20260506043046 47 129 5.0 9.0 0.00 0.00 0.00 66 1007.9
20260506041536 48 129 4.0 13.0 0.00 0.00 0.00 64 1007.6
20260506040032 49 142 3.0 8.0 0.00 0.00 0.00 62 1007.8
20260506034530 50 152 5.0 8.0 0.00 0.00 0.00 61 1007.5
20260506033026 50 147 4.0 11.0 0.00 0.00 0.00 60 1007.1
20260506031529 50 126 6.0 12.0 0.00 0.00 0.00 59 1007.0
20260506030022 51 119 4.0 11.0 0.00 0.00 0.00 58 1006.8
20260506024534 52 113 6.0 14.0 0.00 0.00 0.00 56 1006.3
20260506023016 53 146 7.0 11.0 0.00 0.00 0.00 55 1006.3
20260506021512 53 136 4.0 15.0 0.00 0.00 0.00 54 1006.1
20260506020010 55 161 6.0 12.0 0.00 0.00 0.00 53 1005.6
20260506014509 56 137 6.0 12.0 0.00 0.00 0.00 50 1005.1
20260506013007 56 57 2.0 9.0 0.00 0.00 0.00 49 1005.2
20260506011507 57 100 3.0 13.0 0.00 0.00 0.00 48 1004.7
20260506010007 57 117 7.0 13.0 0.00 0.00 0.00 47 1004.3
20260506004507 58 147 6.0 14.0 0.00 0.00 0.00 46 1003.9
20260506003005 59 102 8.0 14.0 0.00 0.00 0.00 46 1003.5
20260506001604 59 146 6.0 14.0 0.00 0.00 0.00 45 1003.2
20260506000100 60 139 6.0 12.0 0.00 0.00 0.00 45 1003.3
20260505234507 60 170 7.0 14.0 0.00 0.00 0.00 44 1003.3
20260505233114 61 162 6.0 12.0 0.00 0.00 0.00 44 1003.2
20260505231535 61 135 7.0 12.0 0.00 0.00 0.00 43 1003.2
20260505230133 61 102 4.0 12.0 0.00 0.00 0.00 43 1003.3
20260505224557 62 135 4.0 9.0 0.00 0.00 0.00 43 1003.4
20260505223043 62 113 5.0 8.0 0.00 0.00 0.00 42 1003.5
20260505221511 62 120 2.0 10.0 0.00 0.00 0.00 42 1003.5
20260505220113 63 53 4.0 9.0 0.00 0.00 0.00 41 1003.8
20260505214603 63 131 3.0 6.0 0.00 0.00 0.00 40 1003.6
20260505213005 63 22 2.0 7.0 0.00 0.00 0.00 41 1004.5
20260505211546 62 142 2.0 9.0 0.00 0.00 0.00 42 1004.6
20260505210046 62 199 1.0 8.0 0.00 0.00 0.00 43 1004.7
20260505204546 62 104 2.0 7.0 0.00 0.00 0.00 43 1004.9
20260505203043 62 129 3.0 10.0 0.00 0.00 0.00 42 1004.9
20260505201542 61 127 5.0 8.0 0.00 0.00 0.00 42 1005.1
20260505200055 61 360 0.0 12.0 0.00 0.00 0.00 42 1004.8
20260505194541 62 124 3.0 8.0 0.00 0.00 0.00 42 1004.6
20260505193040 61 74 3.0 13.0 0.00 0.00 0.00 42 1004.7
20260505191545 61 141 1.0 8.0 0.00 0.00 0.00 42 1004.8
20260505190040 62 144 3.0 11.0 0.00 0.00 0.00 42 1004.7
20260505184538 62 127 2.0 7.0 0.00 0.00 0.00 43 1004.9
20260505183050 60 20 3.0 15.0 0.00 0.00 0.00 45 1004.8
20260505181537 61 72 3.0 9.0 0.00 0.00 0.00 44 1004.8
20260505180041 60 23 2.0 12.0 0.00 0.00 0.00 45 1005.1
20260505174541 61 136 3.0 9.0 0.00 0.00 0.00 43 1005.1
20260505173033 60 126 2.0 12.0 0.00 0.00 0.00 47 1004.8
20260505171533 59 27 4.0 9.0 0.00 0.00 0.00 46 1005.0
20260505170032 59 111 3.0 11.0 0.00 0.00 0.00 47 1004.8
20260505164530 59 110 5.0 13.0 0.00 0.00 0.00 46 1004.9
20260505163032 60 28 2.0 10.0 0.00 0.00 0.00 44 1004.9
20260505161527 58 63 6.0 10.0 0.00 0.00 0.00 47 1004.6
20260505153024 56 72 4.0 12.0 0.00 0.00 0.00 49 1004.0
20260505151522 56 88 3.0 10.0 0.00 0.00 0.00 48 1004.0
20260505124608 53 25 3.0 16.0 0.00 0.00 0.00 54 1001.3